TimeHST,TemperatureF,Dew PointF,Humidity,Sea Level PressureIn,VisibilityMPH,Wind Direction,Wind SpeedMPH,Gust SpeedMPH,PrecipitationIn,Events,Conditions,WindDirDegrees,DateUTC
12:16 AM,57.2,-9999,N/A,30.29,9.0,SE,2.3,-,N/A,,Scattered Clouds,130,2014-02-03 10:16:00
12:56 AM,55.4,-9999,N/A,29.94,9.0,East,3.5,-,N/A,,Clear,100,2014-02-03 10:56:00
1:56 AM,55.4,-9999,N/A,29.92,6.0,WSW,4.6,-,N/A,,Clear,250,2014-02-03 11:56:00
2:31 AM,55.4,-9999,N/A,30.27,6.0,West,1.2,-,N/A,,Mostly Cloudy,260,2014-02-03 12:31:00
2:46 AM,55.4,-9999,N/A,30.27,6.0,North,2.3,-,N/A,,Scattered Clouds,10,2014-02-03 12:46:00
2:56 AM,53.6,-9999,N/A,30.27,5.0,SE,3.5,-,N/A,,Mostly Cloudy,130,2014-02-03 12:56:00
2:57 AM,55.4,-9999,N/A,29.92,5.0,ESE,3.5,-,N/A,,Mostly Cloudy,120,2014-02-03 12:57:00
3:02 AM,55.4,-9999,N/A,30.27,4.0,ESE,3.5,-,N/A,,Mostly Cloudy,120,2014-02-03 13:02:00
3:07 AM,55.4,-9999,N/A,30.27,3.0,ESE,5.8,-,N/A,,Mostly Cloudy,110,2014-02-03 13:07:00
3:12 AM,53.6,-9999,N/A,30.26,0.8,East,5.8,-,N/A,,Mostly Cloudy,100,2014-02-03 13:12:00
3:22 AM,53.6,-9999,N/A,30.26,1.8,ESE,4.6,-,N/A,Fog,Fog,120,2014-02-03 13:22:00
3:27 AM,53.6,-9999,N/A,30.26,10.0,ESE,5.8,-,N/A,,Scattered Clouds,120,2014-02-03 13:27:00
3:56 AM,53.6,-9999,N/A,29.91,12.0,ESE,5.8,-,N/A,,Clear,120,2014-02-03 13:56:00
4:56 AM,51.8,-9999,N/A,29.94,12.0,North,2.3,-,N/A,,Clear,10,2014-02-03 14:56:00
5:46 AM,53.6,-9999,N/A,30.27,6.0,WNW,2.3,-,N/A,,Mostly Cloudy,300,2014-02-03 15:46:00
5:51 AM,51.8,-9999,N/A,30.28,4.0,NNW,2.3,-,N/A,,Mostly Cloudy,340,2014-02-03 15:51:00
5:56 AM,51.8,-9999,N/A,29.97,3.0,NNW,2.3,-,N/A,,Mostly Cloudy,340,2014-02-03 15:56:00
6:21 AM,53.6,-9999,N/A,30.29,7.0,NW,1.2,-,N/A,,Overcast,310,2014-02-03 16:21:00
6:41 AM,53.6,-9999,N/A,30.29,4.0,ESE,2.3,-,N/A,,Overcast,120,2014-02-03 16:41:00
6:46 AM,53.6,-9999,N/A,30.29,2.2,ESE,2.3,-,N/A,,Overcast,120,2014-02-03 16:46:00
6:51 AM,53.6,-9999,N/A,30.29,1.5,ESE,2.3,-,N/A,,Mostly Cloudy,120,2014-02-03 16:51:00
6:56 AM,53.6,-9999,N/A,29.97,0.3,ESE,2.3,-,N/A,Fog,Fog,120,2014-02-03 16:56:00
7:07 AM,51.8,-9999,N/A,30.30,0.1,ESE,2.3,-,N/A,Fog,Light Drizzle,120,2014-02-03 17:07:00
7:12 AM,51.8,-9999,N/A,30.30,0.1,ESE,2.3,-,N/A,Fog,Heavy Drizzle,110,2014-02-03 17:12:00
7:22 AM,51.8,-9999,N/A,30.30,1.0,East,3.5,-,N/A,Fog,Heavy Drizzle,100,2014-02-03 17:22:00
7:27 AM,51.8,-9999,N/A,30.29,11.0,East,3.5,-,N/A,Fog-Rain,Light Rain Showers,100,2014-02-03 17:27:00
7:34 AM,51.8,-9999,N/A,30.30,12.0,East,2.3,-,N/A,,Partly Cloudy,100,2014-02-03 17:34:00
7:56 AM,55.4,-9999,N/A,29.98,12.0,SSE,2.3,-,N/A,,Clear,150,2014-02-03 17:56:00
8:56 AM,62.6,-9999,N/A,29.96,12.0,Calm,Calm,-,N/A,,Clear,0,2014-02-03 18:56:00
9:56 AM,65.5,52.2,62,29.93,12.0,South,12.7,18.4,N/A,,Clear,170,2014-02-03 19:56:00
10:56 AM,68.4,52.2,56,29.94,12.0,SW,8.1,17.3,N/A,,Clear,220,2014-02-03 20:56:00
11:56 AM,67.3,49.8,53,29.93,11.0,SW,4.6,12.7,N/A,,Clear,220,2014-02-03 21:56:00
12:26 PM,64.4,59.0,83,30.27,10.0,WSW,5.8,-,N/A,,Mostly Cloudy,250,2014-02-03 22:26:00
12:41 PM,64.4,48.2,56,30.26,9.0,WSW,5.8,12.7,N/A,,Mostly Cloudy,240,2014-02-03 22:41:00
12:56 PM,68.0,50.5,54,29.90,8.0,WSW,8.1,11.5,N/A,,Partly Cloudy,250,2014-02-03 22:56:00
1:56 PM,69.1,66.7,92,29.86,8.0,WSW,6.9,-,N/A,,Partly Cloudy,240,2014-02-03 23:56:00
2:56 PM,66.4,58.6,76,29.86,6.0,WSW,9.2,16.1,N/A,,Scattered Clouds,250,2014-02-04 00:56:00
3:56 PM,65.5,47.5,52,29.87,6.0,WSW,11.5,18.4,N/A,,Partly Cloudy,250,2014-02-04 01:56:00
4:56 PM,61.5,58.8,91,29.93,7.0,WSW,6.9,-,N/A,,Partly Cloudy,250,2014-02-04 02:56:00
5:06 PM,60.8,57.2,88,30.25,7.0,West,8.1,-,N/A,,Mostly Cloudy,260,2014-02-04 03:06:00
5:11 PM,60.8,55.4,82,30.25,6.0,West,8.1,-,N/A,,Mostly Cloudy,270,2014-02-04 03:11:00
5:21 PM,60.8,55.4,82,30.26,5.0,West,8.1,-,N/A,,Mostly Cloudy,260,2014-02-04 03:21:00
5:25 PM,60.8,-9999,N/A,30.26,5.0,West,5.8,-,N/A,Rain,Light Rain Showers,260,2014-02-04 03:25:00
5:30 PM,60.8,-9999,N/A,30.26,5.0,West,4.6,-,N/A,Rain,Light Rain Showers,270,2014-02-04 03:30:00
5:35 PM,60.8,57.2,88,30.26,5.0,West,5.8,-,N/A,Rain,Light Rain Showers,260,2014-02-04 03:35:00
5:55 PM,60.8,55.4,82,30.27,5.0,WSW,5.8,-,N/A,,Mostly Cloudy,240,2014-02-04 03:55:00
5:56 PM,59.9,54.5,82,29.95,5.0,WSW,5.8,-,0.01,,Mostly Cloudy,240,2014-02-04 03:56:00
6:21 PM,59.0,55.4,88,30.29,2.8,West,2.3,-,N/A,,Mostly Cloudy,260,2014-02-04 04:21:00
6:26 PM,59.0,46.4,63,30.29,2.8,West,1.2,-,N/A,,Mostly Cloudy,260,2014-02-04 04:26:00
6:31 PM,59.0,53.6,82,30.28,4.0,West,1.2,-,N/A,,Mostly Cloudy,260,2014-02-04 04:31:00
6:41 PM,59.0,53.6,82,30.28,5.0,Calm,Calm,-,N/A,,Mostly Cloudy,0,2014-02-04 04:41:00
6:46 PM,59.0,51.8,77,30.28,6.0,West,2.3,-,N/A,,Mostly Cloudy,260,2014-02-04 04:46:00
6:56 PM,59.5,53.6,81,29.98,5.0,West,4.6,-,N/A,,Mostly Cloudy,260,2014-02-04 04:56:00
7:56 PM,59.2,53.6,82,29.98,6.0,SE,1.2,-,N/A,,Mostly Cloudy,140,2014-02-04 05:56:00
8:56 PM,59.0,-9999,N/A,29.98,6.0,WSW,2.3,-,N/A,,Mostly Cloudy,240,2014-02-04 06:56:00
9:56 PM,59.0,-9999,N/A,29.96,4.0,West,2.3,-,N/A,,Mostly Cloudy,260,2014-02-04 07:56:00
10:11 PM,59.0,-9999,N/A,30.33,4.0,West,5.8,-,N/A,,Mostly Cloudy,260,2014-02-04 08:11:00
10:26 PM,59.0,-9999,N/A,30.32,5.0,West,4.6,-,N/A,,Mostly Cloudy,270,2014-02-04 08:26:00
10:36 PM,55.4,-9999,N/A,30.33,5.0,West,10.4,18.4,N/A,,Overcast,270,2014-02-04 08:36:00
10:43 PM,57.2,-9999,N/A,30.32,9.0,West,6.9,-,N/A,Rain,Light Rain,280,2014-02-04 08:43:00
10:48 PM,57.2,53.6,88,30.32,7.0,WSW,4.6,-,N/A,Rain,Light Rain Showers,250,2014-02-04 08:48:00
10:53 PM,55.4,-9999,N/A,30.32,5.0,West,6.9,-,N/A,Rain,Light Rain Showers,260,2014-02-04 08:53:00
10:56 PM,55.4,-9999,N/A,29.98,5.0,West,5.8,-,N/A,Rain,Light Rain Showers,260,2014-02-04 08:56:00
10:59 PM,55.4,-9999,N/A,30.32,7.0,West,5.8,-,N/A,,Mostly Cloudy,260,2014-02-04 08:59:00
11:09 PM,55.4,-9999,N/A,30.32,2.0,West,8.1,-,N/A,,Mostly Cloudy,260,2014-02-04 09:09:00
11:14 PM,55.4,-9999,N/A,30.32,1.8,West,5.8,-,N/A,,Mostly Cloudy,260,2014-02-04 09:14:00
11:19 PM,55.4,-9999,N/A,30.32,4.0,WSW,5.8,-,N/A,,Overcast,250,2014-02-04 09:19:00
11:24 PM,55.4,-9999,N/A,30.32,2.8,West,5.8,-,N/A,,Overcast,260,2014-02-04 09:24:00
11:29 PM,55.4,-9999,N/A,30.32,1.1,West,3.5,-,N/A,,Overcast,260,2014-02-04 09:29:00
11:34 PM,55.4,-9999,N/A,30.31,0.5,WSW,3.5,-,N/A,Fog,Fog,250,2014-02-04 09:34:00
11:39 PM,55.4,-9999,N/A,30.32,0.5,WSW,3.5,-,N/A,Fog,Fog,250,2014-02-04 09:39:00
11:56 PM,53.6,-9999,N/A,29.96,0.5,West,3.5,-,N/A,Fog,Fog,260,2014-02-04 09:56:00